Home > Weather > Worms > Past weeks

Flag for Germany Weather for the Past 2 Weeks in Worms, Rhineland-Palatinate, Germany

Now
39 °F

Scattered showers. Broken clouds.


Feels Like: 31 °F
Forecast: 36 / 43 °F
Wind: 14 mph from Southwest

Location: Mannheim City

Current Time: Feb 10, 2016 at 10:48:35 AM

Latest Report: Feb 10, 2016 at 10:20 AM


Visibility: N/A

Pressure: 29.45 "Hg

Humidity: 81%

Dew point: 34 °F

Location of WormsLocation

Historic Weather in Worms — Graph

°F

Worms Temperature Yesterday

Maximum temperature yesterday: 54 °F (at 2:20 PM)
Minimum temperature yesterday: 45 °F (at 6:50 AM)
Average temperature yesterday: 48 °F

High & Low Weather Summary for the Past Weeks

 TemperatureHumidityPressure
High59 °F (Jan 26, 3:20 PM)100% (Jan 31, 8:50 AM)30.45 "Hg (Jan 31, 8:50 AM)
Low37 °F (Jan 29, 7:50 AM)50% (Jan 29, 1:50 PM)29.09 "Hg (Feb 9, 4:20 PM)
Average48 °F76%30.03 "Hg
* Reported Jan 26 9:20 AM — Feb 10 9:20 AM, Worms, Weather by CustomWeather, © 2016

Note: Actual official high and low records may vary slightly from our data, if they occured in-between our weather recording intervals... More about our weather records

Advertising

Worms Weather History for the Previous 24 Hours

 ConditionsComfort  
Time TempWeatherWind HumidityBarometerVisibility
9:20 AM
Wed, Feb 10
39 °FLight rain. Broken clouds.14 mph81%29.45 "HgN/A
8:50 AM37 °FScattered showers. Partly sunny.8 mph87%29.45 "HgN/A
8:20 AM37 °FLight rain. Partly sunny.9 mph87%29.45 "HgN/A
7:50 AM37 °FMore clouds than sun.8 mph87%29.45 "HgN/A
7:20 AM37 °FPassing clouds.8 mph87%29.42 "HgN/A
6:50 AM39 °FPassing clouds.5 mph75%29.42 "HgN/A
6:20 AM39 °FPassing clouds.7 mph81%29.42 "HgN/A
5:50 AM37 °FPartly cloudy.6 mph87%29.42 "HgN/A
5:20 AM37 °FPartly cloudy.7 mph87%29.42 "HgN/A
8:50 PM
Tue, Feb 9
45 °FPartly cloudy.21 mph61%29.24 "HgN/A
8:20 PM48 °FPartly cloudy.21 mph62%29.18 "HgN/A
7:50 PM48 °FPassing clouds.16 mph66%29.15 "HgN/A
7:20 PM48 °FPartly cloudy.13 mph76%29.15 "HgN/A
6:50 PM50 °FPartly cloudy.15 mph71%29.12 "HgN/A
6:20 PM50 °FPassing clouds.14 mph71%29.12 "HgN/A
5:50 PM50 °FPassing clouds.14 mph76%29.09 "HgN/A
5:20 PM50 °FScattered showers. Partly sunny.20 mph94%29.12 "HgN/A
4:20 PM54 °FLight rain. Broken clouds.16 mph72%29.09 "HgN/A
3:50 PM54 °FLight rain. Partly sunny.16 mph72%29.12 "HgN/A
3:20 PM54 °FLight rain. Partly sunny.21 mph72%29.12 "HgN/A
2:50 PM52 °FSprinkles. Broken clouds.20 mph82%29.15 "HgN/A
2:20 PM54 °FScattered showers. Partly sunny.21 mph77%29.18 "HgN/A
1:50 PM52 °FBroken clouds.13 mph82%29.21 "HgN/A
1:20 PM50 °FLight rain. Broken clouds.9 mph94%29.24 "HgN/A
12:50 PM48 °FLight rain. Partly sunny.13 mph94%29.27 "HgN/A
12:20 PM46 °FLight rain. Partly sunny.12 mph100%29.33 "HgN/A
11:50 AM45 °FLight rain. Partly sunny.13 mph100%29.36 "Hg4 mi
10:50 AM45 °FLight rain. Partly sunny.6 mph100%29.45 "Hg6 mi
10:20 AM45 °FLight rain. Broken clouds.7 mph93%29.47 "HgN/A
Weather by CustomWeather, © 2016

See weather overviewHow to use our weather pages